Regional Weather Roundup
Issued by NWS

Home | Current Version | Previous Version | Graphics & Text | Print | Product List | Glossary On
Versions: 1 2 3 4 5 6 7 8 9 10 11 12 13 14 15 16 17 18 19 20 21 22 23 24 25 26 27 28 29 30 31 32 33 34 35 36 37 38 39 40 41 42 43 44 45 46 47 48 49 50
000
ASUS44 KFWD 300715
RWRTX
NORTH TEXAS HOURLY WEATHER ROUNDUP
NATIONAL WEATHER SERVICE FORT WORTH TX
200 AM CDT TUE AUG 30 2016

NOTE: "FAIR" INDICATES FEW OR NO CLOUDS BELOW 12,000 FEET WITH NO
SIGNIFICANT WEATHER AND/OR OBSTRUCTIONS TO VISIBILITY.

TXZ118-119-300800-
DALLAS/FORT WORTH METROPLEX

CITY           SKY/WX    TMP DP  RH WIND       PRES   REMARKS
DFW AIRPORT    MOCLDY    77  69  76 SE5       30.05S
DALLAS LOVE    PTCLDY    78  70  76 SE6       30.05F
FTW MEACHAM    CLEAR     78  71  79 E7        30.05S
DAL-EXECUTIVE  CLEAR     74  72  93 E3        30.04F
FTW-ALLIANCE   MOCLDY    75  71  87 E3        30.05S
FTW-SPINKS     CLEAR     74  70  86 CALM      30.07S
ARLINGTON      PTCLDY    76  70  82 E3        30.05F
GRAND PRAIRIE    N/A    N/A N/A N/A MISG        N/A
ADDISON        PTCLDY    78  71  77 E6        30.08S
MESQUITE       PTCLDY    73  71  95 CALM      30.05F
LANCASTER      PTCLDY    74  70  89 CALM      30.06F
$$

TXZ091>094-102>105-117-120-121-131>134-300800-
NORTH CENTRAL TEXAS

CITY           SKY/WX    TMP DP  RH WIND       PRES   REMARKS
SHRMAN/DENISON CLEAR     75  73  91 E3        30.08S
GAINESVILLE      N/A     74  69  85 NE5       30.09S
BOWIE          CLEAR     73  71  93 CALM      30.08R
BRIDGEPORT     CLOUDY    73  73 100 SE3       30.08S
DECATUR        PTCLDY    74  71  89 NE3       30.08R
DENTON         CLOUDY    78  72  81 SE3       30.06R
MCKINNEY       PTCLDY    74  72  93 CALM      30.06S
GREENVILLE     CLEAR     75  73  94 CALM      30.06F
ROCKWALL       PTCLDY    75  71  88 CALM      30.05S
TERRELL        PTCLDY    74  70  87 NE5       30.05F
WAXAHACHIE     CLEAR     72  72 100 CALM      30.06F
CLEBURNE       CLEAR     75  75 100 CALM      30.07S
GRANBURY       CLEAR     76  72  87 CALM      30.07R
$$

TXZ083>090-098>101-113>116-127>130-139>142-154-155-300800-
WESTERN NORTH TEXAS

CITY           SKY/WX    TMP DP  RH WIND       PRES   REMARKS
WICHITA FALLS  PTCLDY    73  67  81 N6        30.08F
WF-KICKAPOO    CLEAR     77  68  73 NE5       30.09S
VERNON         PTCLDY    76  64  68 E6        30.12R
ABILENE        CLEAR     73  69  87 E3        30.11S
ABILENE-DYESS  CLEAR     73  69  86 E3        30.09F
CISCO          PTCLDY    72  70  94 CALM      30.10F
BRECKENRIDGE   CLEAR     75  70  85 NE3       30.08S
GRAHAM         CLEAR     73  72  95 CALM      30.07S
MINERAL WELLS  CLEAR     73  71  93 CALM      30.06R
STEPHENVILLE   CLEAR     72  67  87 CALM      30.10R
COMANCHE       CLOUDY    71  71  98 CALM      30.08R
BROWNWOOD      CLOUDY    72  68  88 CALM      30.08S
COLEMAN        CLEAR     72  68  87 N5        30.09F
$$

TXZ143>147-156>162-174-175-300800-
CENTRAL TEXAS

CITY           SKY/WX    TMP DP  RH WIND       PRES   REMARKS
WACO           MOCLDY    74  71  91 E6        30.03S
WACO-MCGREGOR  PTCLDY    74  72  93 E6        30.03S
HILLSBORO      CLEAR     72  70  93 NE6       30.03F FOG
MEXIA          CLOUDY    71  70  98 NE3       30.02F
HEARNE         CLOUDY    73  71  92 CALM      30.01F
CAMERON        PTCLDY    74  72  95 E3        30.01F
TEMPLE         CLOUDY    73  71  93 NE6       30.04R
KILLEEN        MOCLDY    73  72  94 N3        30.04R
KILLEEN-SKYLRK PTCLDY    74  72  93 E3        30.04R
FORT HOOD      MOCLDY    72  70  93 E6        30.02R
GATESVILLE     CLOUDY    73  72  94 CALM      30.07R
HAMILTON       CLOUDY    73  73 100 CALM      30.08R
LAMPASAS       CLEAR     72  71  96 N3        30.05S
$$

TXZ095>097-106>112-122>126-135>138-148>153-164>167-300800-
EAST TEXAS

CITY           SKY/WX    TMP DP  RH WIND       PRES   REMARKS
PARIS          PTCLDY    75  72  88 NE7       30.06F
SULPHUR SPRNGS CLEAR     75  71  88 CALM      30.07F
MOUNT PLEASANT PTCLDY    75  75  99 CALM      30.06S
GILMER         PTCLDY    73  71  95 CALM      30.04F
TYLER          MOCLDY    76  71  85 N5        30.04F
LONGVIEW       CLOUDY    72  72 100 CALM      30.02F
MARSHALL       PTCLDY    73  70  91 NW3       30.04F
ATHENS         MOCLDY    72  72 100 CALM      30.03S
PALESTINE      CLOUDY    73  73 100 CALM      30.04S
JACKSONVILLE   CLOUDY    72  72  99 CALM      30.06S
HENDERSON      PTCLDY    72  72  99 CALM      30.05S
CENTER         PTSUNNY   74  73  96 CALM      30.02F
NACOGDOCHES    PTCLDY   N/A N/A N/A N5        30.00F
LUFKIN         CLOUDY    72  71  97 CALM      30.00F
$$

SUPPLEMENTAL OBSERVATIONS (CENTRAL)

CITY           SKY/WX    TMP DP  RH WIND       PRES   REMARKS
DENISON DAM      N/A     75  70  83 E2          N/A
PAT MAYSE LAKE   N/A     75  73  94 N5          N/A
GREENVILLE       N/A     75  70  83 CALM        N/A
CEDAR HILL       N/A     73  72  94 CALM        N/A
ATHENS           N/A     73  59  60 CALM        N/A
LAKE LIMESTONE   N/A     72  70  94 N2          N/A
MCGREGOR         N/A     73  72  94 E3          N/A
TEMPLE           N/A     73  68  83 E8          N/A
$$

SUPPLEMENTAL OBSERVATIONS (WEST)

CITY           SKY/WX    TMP DP  RH WIND       PRES   REMARKS
MILLERS CREEK    N/A     75  68  78 NE2         N/A
POSSUM KINGDOM   N/A     75  72  88 NE1         N/A
GRANBURY         N/A     75  72  88 N1          N/A
COMANCHE         N/A     72  68  88 NW3         N/A
HAMBY            N/A     70  64  83 E1          N/A
IVIE RESERVOIR   N/A     72  68  88 CALM        N/A
COLORADO BEND    N/A     70  66  88 CALM        N/A
$$

SUPPLEMENTAL OBSERVATIONS (EAST)

CITY           SKY/WX    TMP DP  RH WIND       PRES   REMARKS
LUFKIN           N/A     72  70  94 MISG        N/A
$$

SUPPLEMENTAL OBSERVATIONS ARE A COLLECTION OF AUTOMATED INSTRUMENTS
THAT ARE MAINTAINED BY A VARIETY OF FEDERAL AND STATE AGENCIES.
CERTAIN ELEMENTS...SUCH AS HUMIDITY VALUES AND SUSTAINED WIND
SPEEDS...MAY BE APPROXIMATED.





USA.gov is the U.S. government's official web portal to all federal, state and local government web resources and services.